Location: Strawberry
(45.6646°N, 111.9596°W)
Time: 16:42:07
(UTC+00:00)

SR - Pass Details

Date: 10 October 2022
Orbit: 577 x 874 km, 66.7° (Epoch: 05 December)

Event Time Altitude Azimuth Distance (km) Brightness Sun altitude
Exits shadow 12:51:39 10° 289° (WNW) 2,290 ? -8.9°
Reaches altitude 10° 12:51:49 10° 288° (WNW) 2,257 ? -8.8°
Maximum altitude 12:54:23 14° 257° (WSW) 1,940 ? -8.4°
Drops below altitude 10° 12:56:52 10° 227° (SW) 2,147 ? -8.0°
Sets 13:00:09 0° 202° (SSW) 2,989 ? -7.4°
